Regional Weather Roundup
Issued by NWS

Home | Current Version | Previous Version | Graphics & Text | Print | Product List | Glossary On
Versions: 1 2 3 4 5 6 7 8 9 10 11 12 13 14 15 16 17 18 19 20 21 22 23 24 25 26 27 28 29 30 31 32 33 34 35 36 37 38 39 40 41 42 43 44 45 46 47 48 49 50
000
ASUS43 KLOT 031221
RWRIL

ILLINOIS REGIONAL WEATHER ROUNDUP
NATIONAL WEATHER SERVICE CHICAGO/ROMEOVILLE IL
700 AM CDT MON AUG 03 2015

NOTE: "FAIR" INDICATES FEW OR NO CLOUDS BELOW 12,000 FEET WITH NO
SIGNIFICANT WEATHER AND/OR OBSTRUCTIONS TO VISIBILITY.

* THESE STATIONS ARE NOT UNDER NWS QUALITY CONTROL. THEY ALSO MAY NOT
  REPORT WEATHER SUCH AS PRECIPITATION OR FOG.

ILZ001-002-007-009-015-016-024-031300-
NORTHWEST ILLINOIS

CITY           SKY/WX    TMP DP  RH WIND       PRES   REMARKS
MOLINE         CLEAR     69  60  73 NW8       29.86R
6HR MIN TEMP:  67; 6HR MAX TEMP:  75;

STERLING*      SUNNY     70  61  73 N9        29.84R
SAVANNA*       SUNNY     68  56  67 N7        29.86S
$$

ILZ003-004-008-010-011-017-018-031300-
NORTH CENTRAL ILLINOIS

CITY           SKY/WX    TMP DP  RH WIND       PRES   REMARKS
ROCKFORD       CLOUDY    68  60  75 NW6       29.87R
6HR MIN TEMP:  67; 6HR MAX TEMP:  74;

FREEPORT*      MOSUNNY   63  58  83 NW5       29.89R
ROCHELLE*      SUNNY     67  63  87 N6        29.85R
DE KALB*       SUNNY     67  63  86 NW6       29.85R
PERU*          SUNNY     69  66  90 NW6       29.84R
$$

ILZ005-006-012>014-019>023-031300-
NORTHEAST ILLINOIS

CITY           SKY/WX    TMP DP  RH WIND       PRES   REMARKS
CHICAGO-OHARE  MOSUNNY   69  64  84 NW9       29.81R
6HR MIN TEMP:  67; 6HR MAX TEMP:  69;

CHICAGO-MIDWAY MOSUNNY   71  64  78 NW6       29.81R
6HR MIN TEMP:  68; 6HR MAX TEMP:  71;

AURORA         SUNNY     66  62  87 CALM      29.83R
6HR MIN TEMP:  63; 6HR MAX TEMP:  71;

LANSING*       MOSUNNY   67  65  94 CALM      29.82R
JOLIET*        SUNNY     70  65  84 N3        29.82S
WAUKEGAN       PTSUNNY   65  62  90 W6        29.81R
6HR MIN TEMP:  64; 6HR MAX TEMP:  67;

DUPAGE AIRPORT MOSUNNY   68  62  81 NW8       29.83R
6HR MIN TEMP:  63; 6HR MAX TEMP:  68;

KANKAKEE*      SUNNY     70  65  83 NW3       29.82S
WHEELING       NOT AVBL
MORRIS*        SUNNY     68  64  87 CALM      29.81S
ROMEOVILLE*    SUNNY     67  65  93 NW5       29.82S
NORTHERLY ISL    N/A     72  63  73 W8          N/A
$$

LMZ740>746-031300-
SOUTHERN LAKE MICHIGAN

STATION/POSITION SKY/WX   TEMP    WIND        PRES    VSBY  WAVE
                          AIR SEA DIR/SP/G                  HT/PER
                          (F)     (DEG/KT/KT) (MB)    (MI)  (FT/S)
HARRISON CRIB              71     300/ 13/ 15   N/A
BURNHAM HARBOR             72     280/ 12       N/A
CALUMET HARBOR             67     270/  2/  4   N/A
BURNS HARBOR               67     160/  3/  4 1009.5R
MICHIGAN CITY              72     260/  7/  9   N/A
MICHIGAN CITY 6N           72 73  290/  8/ 10   N/A           2/ 5
ST. JOSEPH                 71 73  310/  6/  8   N/A           2/ 4
$$

ILZ025>027-034>036-040-047-049-050-058-095>099-031300-
WEST-CENTRAL ILLINOIS

CITY           SKY/WX    TMP DP  RH WIND       PRES   REMARKS
QUINCY         CLEAR     68  62  81 NW3       29.88R
GALESBURG*     CLEAR     66  62  89 N6        29.86R
MACOMB*        CLEAR     67  64  90 NW8       29.89R
JACKSONVILLE*  CLEAR     69  65  87 SW5       29.87R
PITTSFIELD*    CLEAR     69  62  78 CALM      29.88S
$$

ILZ028>032-037-038-041>044-048-051>054-059>061-031300-
CENTRAL ILLINOIS

CITY           SKY/WX    TMP DP  RH WIND       PRES   REMARKS
PONTIAC        SUNNY     69  68  97 NW3       29.84R
BLOOMINGTON    SUNNY     72  67  84 NW7       29.85R
DECATUR        MOSUNNY   74  67  78 NW8       29.85R
PEORIA         SUNNY     72  63  73 VRB3      29.84R
6HR MIN TEMP:  71; 6HR MAX TEMP:  80;

LACON*         SUNNY     68  64  86 NW3       29.82S
LINCOLN*       SUNNY     73  66  78 CALM      29.84R
SPRINGFIELD    SUNNY     69  66  90 SW3       29.86R
6HR MIN TEMP:  68; 6HR MAX TEMP:  77;

TAYLORVILLE    MOSUNNY   68  64  88 W6        29.86R
$$

ILZ033-039-045-046-055>057-062-063-031300-
EAST-CENTRAL ILLINOIS

CITY           SKY/WX    TMP DP  RH WIND       PRES   REMARKS
CHAMPAIGN      SUNNY     70  67  90 W6        29.84R
DANVILLE*      SUNNY     71  69  93 W6        29.80R
RANTOUL*       SUNNY     73  70  90 W7        29.83R
MATTOON        SUNNY     72  65  78 W7        29.84R
PARIS*         SUNNY     71  69  92 W7        29.84R
$$

ILZ079-100>102-031300-
SOUTHWEST ILLINOIS

CITY           SKY/WX    TMP DP  RH WIND       PRES   REMARKS
ALTON          PTCLDY    72  63  73 W5        29.88R
BELLEVILLE     PTCLDY    74  73  96 CALM      29.87R
CAHOKIA*       MOCLDY    74  69  85 SE3       29.88R
SPARTA*        PTCLDY    76  69  78 NW3       29.90R
$$

ILZ064>066-069>071-074>076-080>082-084>086-088>090-092>094-031300-
SOUTH-CENTRAL ILLINOIS

CITY           SKY/WX    TMP DP  RH WIND       PRES   REMARKS
CARBONDALE     MOSUNNY   75  70  84 SW5       29.89R
6HR MIN TEMP:  73; 6HR MAX TEMP:  76;

CAIRO*         CLEAR     75  71  88 SW5       29.89R
EFFINGHAM*     SUNNY     72  68  86 W3        29.87R
MARION         MOSUNNY   73  70  88 SW3       29.89R
MT. VERNON     SUNNY     73  66  78 SW3       29.89R
CENTRALIA*     MOSUNNY   74  68  82 W3        29.88R
SALEM*         MOSUNNY   76  70  81 W6        29.88S
METROPOLIS*    SUNNY     76  73  91 SW5       29.90S
$$

ILZ067-068-072-073-078-083-087-091-031300-
SOUTHEAST ILLINOIS

CITY           SKY/WX    TMP DP  RH WIND       PRES   REMARKS
LAWRENCEVILLE  MOSUNNY   74  70  87 W5        29.86R
FLORA*         MOSUNNY   76  68  75 W10       29.87R
FAIRFIELD*     SUNNY     74  70  89 SW6       29.86R
HARRISBURG*    MOSUNNY   74  72  94 CALM      29.89S
ROBINSON*      SUNNY     74  70  87 SW7       29.86R
CARMI*         SUNNY     75  67  76 SW8       29.87R
$$

ABBREVIATIONS USED IN REMARKS
   TC - TEMPERATURE IN CELSIUS
  WCI - WIND CHILL INDEX
   HX - HEAT INDEX
  VSB - VISIBILITY
$$




USA.gov is the U.S. government's official web portal to all federal, state and local government web resources and services.